Погода в Ростовановском

Россия / Ставропольский край     43°59′08″N   44°13′10″E
темп.,
°C
ветер,
м/с
пор.,
м/с
влажн.,
%
обл.,
%
осадки,
мм/ч
давл.,
гПа
погр.,
м
20 апреля, вт
вт2000:00+15в377986 0.0 1015229
03:00+13вюв4877100 0.0 1013151
06:00+12в3869100 0.0 1011182
09:00+17вюв6961100 0.0 1008373
12:00+19в4859100 0.0 1006532
15:00+23в465433 0.0 1004185
18:00+22св1159100 0.0 100616
21:00+17ссз101577100 0.0 1009524
21 апреля, ср
ср2100:00+14сз6127599 0.6 1013588
03:00+14сз51072100 0.7 1015550
06:00+13ссз51063100 0.0 1017575
09:00+13ссз466293 0.0 1018608
12:00+17с445560 0.0 10181224
15:00+16с4561100 0.1 10191097
18:00+14ссв3666100 0.1 1020299
21:00+13в2267100 0.1 102174
22 апреля, чт
чт2200:00+13всв2268100 0.0 102140
03:00+12св1269100 0.0 102129
06:00+12св2373100 0.0 102185
09:00+11ссв4683100 0.1 1023388
12:00+11всв4680100 0.0 1023484
15:00+14в3365100 0.0 1022904
18:00+13всв2372100 0.0 1022205
21:00+11в3579100 0.0 1022173
23 апреля, пт
пт2300:00+10всв1195100 2.8 102263
03:00+10св2296100 11.0 1022115
06:00+10зюз1296100 1.5 1023107
09:00+10юз2390100 2.9 1024236
12:00+12ююз338185 0.2 1023388
15:00+17ссв01550 0.2 10211194
18:00+16в226365 0.0 102128
21:00+12ююв33765 0.0 102137
24 апреля, сб
сб2400:00+10ю2281100 0.0 102011
03:00+10ююв1179100 0.0 101911
06:00+11юв1179100 0.0 102011
09:00+15юв2263100 0.0 1020451
12:00+19вюв33474 0.0 10191490
15:00+20вюв32435 0.0 10181714
18:00+18вюв2256100 0.0 101829
21:00+15вюв2356100 0.0 101936